Location: Unspecified
(11.6712°S, 0.0000°E)
Time: 02:24:02
(UTC+00:00)

Transit 4A - Visible Passes

Search period start: 04 April 2026 00:00
Search period end: 14 April 2026 00:00
Orbit: 863 x 978 km, 66.8° (Epoch: 29 March)

Date Brightness Start Highest point End Pass type
(mag) Time Alt. Az. Time Alt. Az. Time Alt. Az.
4 Apr 8.5 03:53:58 42° NNE 03:55:46 55° ENE 04:01:50 10° SSE visible
4 Apr 9.5 05:39:05 10° W 05:42:04 14° WSW 05:45:02 10° SW visible
5 Apr 7.9 04:04:51 80° SSE 04:04:51 80° SSE 04:10:41 10° SSE visible
6 Apr 8.6 04:15:15 38° SSW 04:15:15 38° SSW 04:19:14 10° S visible
7 Apr 9.5 04:25:17 20° SSW 04:25:17 20° SSW 04:27:26 10° S visible
8 Apr 10.0 04:35:03 10° SSW 04:35:03 10° SSW 04:35:09 10° SSW visible
